Findlay, OH

8:57 AM EDT on September 30, 2016 (GMT -0400)
Findlay

Weather History for KFDY - September, 2013

Change the Weather History Date:

Tuesday, September 10, 2013

  Actual Average Record
Temperature  
Mean Temperature 84 °F -  
Max Temperature 96 °F 75 °F 96 °F (1964)
Min Temperature 73 °F 54 °F 43 °F (1949)
Cooling Degree Days 20    
Growing Degree Days 34 (Base 50)    
Moisture  
Dew Point 68 °F    
Average Humidity 62    
Maximum Humidity 87    
Minimum Humidity 33    
Precipitation  
Precipitation 0.00 in - - ()
Sea Level Pressure  
Sea Level Pressure 30.01 in    
Wind  
Wind Speed 9 mph (SW)    
Max Wind Speed 18 mph    
Max Gust Speed 25 mph    
Visibility 9 miles    
Events Thunderstorm    
Averages and records for this station are not official NWS values.
T = Trace of Precipitation, MM = Missing Value Source: NWS Daily Summary

Daily Weather History Graph

Daily Weather History Graph

Search for Another Location

Airport or City:

Trip Planner

Search our weather history database for the weather conditions in past years. The results will help you decide how hot, cold, wet, or windy it might be!

Date:

Astronomy

Sep. 10, 2013 Rise Set
Actual Time 7:10 AM EDT 7:51 PM EDT
Civil Twilight 6:42 AM EDT 8:19 PM EDT
Nautical Twilight 6:09 AM EDT 8:52 PM EDT
Astronomical Twilight 5:35 AM EDT 9:26 PM EDT
Moon 12:37 PM EDT (9/10) 10:51 PM EDT (9/10)
Length of Visible Light 13h 36m
Length of Day
12h 41m
Waxing Crescent, 28% of the Moon is Illuminated
Sep 10
Waxing Crescent
Sep 12
First Quarter
Sep 19
Full
Sep 26
Last Quarter
Oct 4
New

Hourly Weather History & Observations

Time (EDT) Temp. Heat Index Dew Point Humidity Pressure Visibility Wind Dir Wind Speed Gust Speed Precip Events Conditions
12:53 AM 73.9 °F - 66.0 °F 76% 29.94 in 10.0 mi SSW 9.2 mph - N/A   Clear
1:53 AM 73.9 °F - 66.9 °F 79% 29.94 in 10.0 mi SSW 8.1 mph - N/A   Clear
2:53 AM 73.9 °F - 68.0 °F 82% 29.95 in 9.0 mi SSW 8.1 mph - N/A   Clear
3:53 AM 73.0 °F - 68.0 °F 84% 29.96 in 8.0 mi South 6.9 mph - N/A   Clear
4:53 AM 73.9 °F - 69.1 °F 85% 29.97 in 7.0 mi SSW 6.9 mph - N/A   Clear
5:53 AM 73.9 °F - 70.0 °F 87% 29.99 in 7.0 mi SSW 6.9 mph - N/A   Clear
6:53 AM 73.9 °F - 70.0 °F 87% 30.00 in 6.0 mi SSW 8.1 mph - N/A   Clear
7:53 AM 75.0 °F - 70.0 °F 84% 30.01 in 5.0 mi SSW 8.1 mph - N/A   Haze
8:53 AM 78.1 °F - 71.1 °F 79% 30.02 in 6.0 mi SW 10.4 mph - N/A   Haze
9:53 AM 82.0 °F 86.7 °F 72.0 °F 71% 30.03 in 7.0 mi SW 12.7 mph 19.6 mph N/A   Clear
10:53 AM 87.1 °F 92.8 °F 71.1 °F 59% 30.03 in 10.0 mi WSW 9.2 mph - N/A   Clear
11:53 AM 90.0 °F 94.5 °F 69.1 °F 50% 30.03 in 10.0 mi West 11.5 mph - N/A   Clear
12:53 PM 93.0 °F 97.4 °F 68.0 °F 44% 30.02 in 10.0 mi WSW 12.7 mph - N/A   Clear
1:53 PM 95.0 °F 97.0 °F 64.0 °F 36% 30.01 in 10.0 mi WSW 15.0 mph 21.9 mph N/A   Clear
2:53 PM 96.1 °F 97.3 °F 63.0 °F 33% 30.01 in 10.0 mi WSW 16.1 mph 24.2 mph N/A   Clear
3:53 PM 96.1 °F 98.3 °F 64.0 °F 35% 29.99 in 10.0 mi West 18.4 mph 25.3 mph N/A   Clear
4:53 PM 95.0 °F 97.0 °F 64.0 °F 36% 29.99 in 10.0 mi WSW 11.5 mph 19.6 mph N/A   Clear
5:53 PM 93.0 °F 95.0 °F 64.9 °F 39% 29.98 in 10.0 mi WSW 11.5 mph - N/A   Clear
6:53 PM 90.0 °F 92.8 °F 66.9 °F 46% 29.99 in 10.0 mi West 8.1 mph - N/A   Partly Cloudy
7:53 PM 84.9 °F 87.1 °F 66.0 °F 53% 30.01 in 10.0 mi WSW 5.8 mph - N/A   Partly Cloudy
8:05 PM 86.0 °F 88.2 °F 66.2 °F 51% 30.04 in 10.0 mi WSW 4.6 mph - N/A Thunderstorm Mostly Cloudy
8:22 PM 82.4 °F 84.6 °F 66.2 °F 58% 30.05 in 10.0 mi SW 5.8 mph - N/A   Mostly Cloudy
8:53 PM 80.1 °F 82.3 °F 66.9 °F 64% 30.04 in 10.0 mi South 6.9 mph - N/A   Scattered Clouds
9:53 PM 80.1 °F 82.3 °F 66.9 °F 64% 30.04 in 10.0 mi SSW 10.4 mph - N/A   Clear
10:53 PM 80.1 °F 82.9 °F 69.1 °F 69% 30.05 in 10.0 mi SSW 10.4 mph - N/A   Clear
11:53 PM 79.0 °F - 68.0 °F 69% 30.05 in 10.0 mi SW 9.2 mph - N/A   Clear